Location: North Smoke Tower Site
(30.5430°N, 82.3390°W)
Time: 14:28:19
(UTC-04:00)

Cosmos 1980 Rocket - Visible Passes

Search period start: 30 May 2015 00:00
Search period end: 09 June 2015 00:00
Orbit: 828 x 851 km, 71.0° (Epoch: 30 May)

Date Brightness Start Highest point End Pass type
(mag) Time Alt. Az. Time Alt. Az. Time Alt. Az.
30 May 5.1 04:49:30 10° NNE 04:53:12 18° ENE 04:57:06 10° ESE visible
31 May 5.1 04:34:03 10° NNE 04:37:32 17° ENE 04:41:13 10° E visible
31 May 6.0 21:06:34 10° WNW 21:07:43 10° NW 21:08:27 10° NW visible
01 Jun 5.1 04:18:37 10° NNE 04:21:50 16° ENE 04:25:18 10° E visible
01 Jun 2.3 06:00:47 10° NNW 06:06:19 57° WSW 06:11:48 10° S visible
01 Jun 5.9 20:50:06 10° WNW 20:52:00 11° NW 20:53:31 10° NW visible
02 Jun 5.1 04:03:13 10° NNE 04:06:08 15° NE 04:09:21 10° E visible
02 Jun 2.2 05:45:07 10° NNW 05:50:42 62° WSW 05:56:13 10° S visible
03 Jun 5.1 03:47:51 10° NNE 03:50:27 14° NE 03:53:22 10° E visible
03 Jun 2.2 05:29:27 10° NNW 05:35:05 67° WSW 05:40:38 10° S visible
04 Jun 5.1 03:32:32 10° NNE 03:34:45 13° NE 03:37:19 10° E visible
04 Jun 2.1 05:13:49 10° NNW 05:19:27 72° WSW 05:25:02 10° S visible
05 Jun 5.1 03:17:18 10° NE 03:19:04 12° NE 03:21:11 10° ENE visible
05 Jun 2.1 04:58:10 10° NNW 05:03:50 78° WSW 05:09:26 10° SSE visible
06 Jun 5.1 03:02:14 10° NE 03:03:22 11° NE 03:04:53 10° ENE visible
06 Jun 2.1 04:42:32 10° NNW 04:48:13 84° WSW 04:53:49 10° SSE visible
07 Jun 2.1 04:26:54 10° NNW 04:32:35 89° W 04:38:12 10° SSE visible
08 Jun 2.1 04:11:16 10° NNW 04:16:57 85° ENE 04:20:53 20° SSE visible
